Location: Unspecified
(0.0000°N, 0.0000°E)
Time: 04:21:44
(UTC+00:00)

Envisat - Pass Details

Date: 08 August 2021
Orbit: 764 x 766 km, 98.2° (Epoch: 24 September)

Event Time Altitude Azimuth Distance (km) Brightness Sun altitude
Rises 05:34:51 0° 350° (N) 3,214 6.3 -7.4°
Reaches altitude 10° 05:37:29 10° 338° (NNW) 2,290 5.4 -6.8°
Maximum altitude 05:41:38 26° 282° (WNW) 1,467 4.0 -5.8°
Drops below altitude 10° 05:45:48 10° 226° (SW) 2,298 4.9 -4.8°
Sets 05:48:27 0° 214° (SW) 3,226 5.8 -4.1°
